Probability
9 12 14 15 15 14 14 14 13 11 10 8 6 5 6 7 5 5 6 6 6 5 4 4 3 1 0 1 2 2 2 2 1 0 1 2 3 3 3 4 5 4 4
10 11 13 13 13 13 13 13 13 12 12 10 7 5 6 6 6 6 6 6 6 6 5 4 4 3 1 1 1 1 1 1 2 1 1 2 2 3 3 3 3 3 3
9 9 10 10 10 9 10 12 13 13 12 10 7 6 6 6 6 6 6 6 6 6 6 6 6 5 4 3 1 0 0 1 2 2 2 2 2 2 3 3 2 1 1
8 8 8 7 6 6 8 9 11 11 10 8 7 6 6 5 4 4 5 5 6 6 6 6 6 6 6 5 3 2 0 0 1 1 2 2 2 2 3 3 2 1 0
9 8 7 5 5 5 6 7 8 7 6 7 7 7 6 4 3 3 4 5 6 5 5 5 6 6 6 6 6 4 3 2 1 1 1 1 1 2 3 3 3 2 1
9 7 5 5 5 5 5 5 5 4 5 6 7 7 6 5 3 3 3 4 6 6 6 6 6 6 6 7 6 6 5 4 3 2 1 1 1 2 3 3 2 2 2
6 5 4 4 5 5 4 3 3 3 4 5 6 7 7 6 4 3 3 4 5 6 7 7 7 6 7 7 7 6 6 5 4 4 3 2 2 3 4 4 4 4 5
5 5 5 4 4 4 3 3 3 3 3 3 3 5 5 5 5 4 3 4 4 5 7 8 8 8 8 8 8 7 6 5 4 4 3 3 3 3 4 6 6 6 6
7 7 6 5 4 4 3 2 3 3 3 2 2 2 2 3 4 3 3 3 4 5 8 9 9 8 7 7 8 7 7 6 5 4 3 3 2 2 3 5 6 7 6
8 8 7 6 5 4 3 3 3 3 3 3 2 1 0 1 2 2 2 2 4 7 9 10 9 7 5 4 5 6 7 6 5 5 3 3 2 2 3 4 6 6 6
7 7 6 5 4 4 3 3 3 3 3 3 3 1 1 1 1 2 1 1 3 7 10 10 8 6 3 1 2 6 7 5 4 4 4 4 4 4 4 5 6 6 6
6 6 5 4 3 3 3 3 3 4 3 3 4 3 2 1 1 2 1 1 1 4 7 8 7 5 3 1 2 4 5 4 4 5 5 5 4 3 3 4 6 6 6
6 5 4 3 3 3 3 3 4 4 4 4 5 5 3 1 0 1 1 0 0 2 4 5 4 4 3 2 2 3 4 3 3 4 5 4 3 1 1 2 5 6 6
3 3 3 3 3 3 3 3 3 4 3 4 5 5 3 2 1 0 1 1 0 1 2 3 3 2 2 3 3 3 3 3 3 3 3 3 1 0 0 2 3 3 3
1 1 2 2 2 3 4 3 3 3 3 3 4 4 4 3 1 0 1 1 0 1 2 3 3 2 2 3 3 3 3 2 2 2 1 1 0 0 1 1 2 2 2
2 2 3 4 4 4 5 4 3 2 1 1 2 3 3 2 1 0 0 0 0 1 3 3 3 2 2 2 2 2 1 1 1 1 1 1 1 1 2 2 2 2 2
2 2 4 5 6 7 6 5 3 2 1 1 0 1 1 1 1 0 0 0 0 1 2 2 2 1 1 1 1 0 0 0 0 0 1 2 2 2 3 3 2 1 1
1 1 2 5 7 8 8 6 5 4 3 3 1 0 0 0 0 0 0 0 0 1 1 1 1 0 0 0 0 0 0 0 0 0 1 1 1 2 2 1 1 0 0
0 0 1 3 4 6 7 7 7 7 7 5 3 1 0 0 0 0 0 0 0 0 0 0 0 0 0 0 0 0 0 0 0 0 0 0 0 1 1 0 0 0 0
0 1 2 2 2 2 4 6 8 9 9 7 4 2 1 0 0 0 0 0 0 0 0 0 0 0 0 0 0 0 0 0 0 0 0 0 0 0 0 0 0 0 0
1 2 3 2 1 0 2 4 7 8 9 8 6 4 2 0 0 0 0 0 0 0 0 0 0 0 0 0 0 0 0 0 0 0 0 0 0 0 0 0 0 0 0
2 2 2 2 1 1 2 3 4 6 7 6 5 5 3 2 1 0 0 0 0 0 0 0 0 0 0 0 0 0 0 0 0 0 0 0 0 0 0 0 0 0 0
3 2 2 3 2 2 2 2 3 3 4 3 2 3 4 3 1 0 0 0 0 0 0 0 0 0 0 0 0 0 0 0 0 0 0 0 0 0 0 0 0 0 0
3 2 2 2 2 2 1 1 1 3 2 1 1 2 3 3 1 0 0 0 0 0 0 0 0 0 0 0 0 0 0 0 0 0 0 0 0 0 0 0 0 0 0
2 1 1 1 1 1 0 0 1 2 2 1 0 1 3 3 1 0 0 0 0 0 0 0 0 0 0 0 0 0 0 0 0 0 0 0 0 0 0 0 0 0 0
1 0 0 0 0 0 0 1 1 1 1 0 0 1 2 3 2 1 0 0 0 0 0 0 0 0 0 0 0 0 0 0 0 0 0 0 0 0 0 0 0 0 0
Wind_Speed
3 3 2 2 2 2 2 2 1 1 1 1 1 1 1 0 0 0 0 1 1 1 1 1 1 1 1 1 1 1 0 1 2 3 2 2 2 3 3 3 3 3 4
2 2 3 2 2 2 1 1 2 1 1 2 1 1 0 0 0 0 1 0 0 1 1 1 2 1 1 1 1 1 1 1 2 3 3 2 3 3 2 3 3 3 3
2 2 2 2 2 2 2 1 1 1 1 1 2 1 0 0 0 0 1 1 1 2 2 2 2 1 2 2 1 1 2 2 1 2 3 3 2 2 2 3 3 2 3
3 2 2 1 2 2 1 1 1 1 1 1 1 1 1 0 0 1 1 1 1 2 2 2 2 2 3 3 2 2 2 2 2 2 3 3 3 3 1 2 3 2 3
3 2 1 1 1 1 1 1 1 1 2 1 1 0 0 0 1 1 1 1 1 2 3 3 3 4 4 3 2 2 2 2 2 2 3 2 3 2 2 2 3 3 3
3 2 1 1 1 1 1 1 1 0 0 1 1 1 1 1 2 1 1 1 2 2 3 4 4 3 5 5 5 4 3 3 3 3 3 4 5 4 3 3 2 2 3
3 2 2 2 2 1 1 2 1 1 1 0 1 1 2 2 2 1 1 1 2 2 3 3 3 3 4 3 5 6 5 5 5 4 5 6 5 4 3 4 3 3 4
3 2 2 2 1 1 1 1 1 0 0 0 1 1 1 2 2 2 2 2 2 3 3 3 3 4 4 3 3 4 4 5 6 5 5 7 6 5 5 5 4 4 3
3 2 2 2 2 1 1 1 1 1 1 1 1 1 1 3 3 2 2 1 2 3 4 3 3 3 5 3 2 4 5 5 6 6 7 7 7 6 4 1 1 1 3
3 2 2 2 2 1 2 1 1 1 1 1 1 1 1 2 3 3 2 1 2 3 3 3 4 4 5 4 3 3 5 6 5 5 5 5 5 5 5 3 3 2 2
2 2 1 1 2 2 1 1 1 0 0 1 1 1 1 1 3 3 2 0 1 2 3 3 4 6 6 6 4 4 6 5 4 4 4 4 3 3 3 2 3 3 3
2 1 1 0 1 0 0 1 1 0 0 1 1 2 2 2 2 4 4 2 2 1 3 3 4 7 7 6 4 5 6 4 2 2 2 3 3 3 3 3 3 3 4
2 1 0 0 0 0 0 0 1 0 0 1 0 1 2 2 3 5 4 4 4 2 3 5 7 7 6 4 5 5 4 2 1 2 3 3 3 3 3 2 2 2 2
2 1 1 0 0 1 1 0 1 0 0 1 0 1 2 2 3 3 3 3 4 3 3 5 6 5 4 4 4 4 2 1 1 2 3 3 2 2 2 2 2 1 1
1 1 0 0 0 1 1 1 1 2 2 3 2 2 1 2 4 4 2 2 2 2 2 2 2 3 3 3 3 3 3 3 2 2 3 3 2 2 3 2 1 1 1
1 1 1 1 1 1 1 2 3 1 0 2 3 3 2 3 4 4 5 5 5 3 1 1 2 2 2 3 3 3 3 3 3 2 2 2 3 3 3 2 1 1 2
1 1 1 1 1 1 1 1 1 3 3 2 1 2 2 3 4 5 5 5 4 1 1 1 1 2 2 2 2 2 3 3 3 2 3 3 2 2 2 2 1 1 2
0 1 1 1 1 2 2 2 2 1 1 2 3 4 4 5 5 5 4 3 3 2 0 1 1 2 2 2 2 3 3 3 3 3 3 3 2 2 2 2 2 1 2
1 1 1 1 1 1 1 1 1 1 1 2 2 3 4 4 4 4 2 0 1 2 1 1 2 2 2 2 2 2 2 2 3 3 2 3 2 2 2 2 2 2 1
1 1 0 0 0 0 1 1 1 1 1 1 2 2 2 1 2 2 1 1 1 2 2 2 2 2 2 2 2 2 2 2 3 2 3 3 2 2 2 3 2 2 2
1 1 0 0 0 1 1 1 1 1 1 2 2 3 2 1 1 2 1 1 2 2 2 2 2 2 2 2 2 2 2 2 2 2 3 3 2 2 3 2 2 2 1
1 1 1 1 1 1 1 1 1 1 1 2 2 2 2 1 1 1 2 2 2 2 2 2 2 2 2 2 2 2 3 3 3 3 3 3 2 2 2 2 1 1 1
1 1 1 1 1 1 0 1 1 1 1 2 2 1 1 1 2 2 2 2 2 2 2 2 2 2 2 2 2 2 3 3 3 3 3 3 2 2 2 1 2 1 1
1 2 1 1 1 1 1 2 2 1 2 2 2 2 2 2 2 2 2 2 1 1 1 1 2 3 3 3 2 2 2 3 3 3 3 3 3 2 2 1 2 2 1
1 2 2 2 1 2 2 2 1 2 1 1 1 1 1 1 1 1 1 1 1 1 2 1 1 2 3 4 3 3 4 4 3 3 2 2 2 2 2 2 2 2 2
1 1 1 2 2 2 2 2 2 2 1 1 1 1 1 0 0 1 1 1 1 2 2 2 3 3 3 3 4 4 4 4 4 3 2 1 1 1 1 2 2 2 2
Wind_Direction
186 187 184 185 176 171 181 188 161 126 109 112 128 131 134 152 264 75 354 33 34 350 357 18 331 343 359 349 353 355 341 162 230 278 273 286 285 298 302 283 261 245 253
173 162 164 166 153 161 192 184 151 155 162 147 133 127 135 48 43 124 260 304 287 306 301 311 302 326 340 322 325 309 278 241 217 272 290 293 277 283 285 290 286 272 262
130 130 134 157 156 172 199 186 156 166 178 151 135 133 129 322 331 246 225 245 244 250 253 246 263 279 290 285 282 281 274 294 254 253 282 285 280 294 307 300 288 291 281
131 119 109 139 171 190 189 171 171 171 166 171 155 163 185 231 296 283 245 254 266 267 259 244 251 246 250 258 271 272 272 282 279 273 278 287 284 292 301 296 303 291 285
131 126 138 137 126 123 112 140 164 175 179 177 159 170 229 240 276 268 255 249 265 280 283 267 260 256 255 253 266 263 261 259 266 266 273 286 287 300 284 267 277 283 277
132 144 145 117 109 103 97 92 91 117 185 146 149 177 236 271 283 282 254 263 265 268 276 278 276 274 285 279 280 277 250 239 243 248 260 265 266 262 261 266 265 277 283
131 135 124 115 104 109 114 88 79 62 70 113 198 222 254 277 294 316 306 272 274 272 268 275 286 300 301 295 291 293 287 271 246 232 242 250 252 252 250 266 260 244 249
131 136 131 121 109 88 87 99 145 138 177 206 235 244 262 294 310 303 307 297 285 280 269 259 258 281 295 297 302 306 296 286 266 252 241 247 251 245 229 238 249 262 273
141 154 160 148 136 127 143 203 215 208 249 241 239 225 259 294 306 310 323 305 293 291 286 283 272 273 294 300 295 294 297 292 286 276 263 263 267 269 254 248 271 275 282
165 170 166 153 153 179 208 225 238 209 220 236 276 257 248 284 307 323 344 305 302 299 299 295 293 288 299 299 274 279 288 287 297 304 299 291 280 280 268 224 218 234 254
161 143 133 145 165 190 196 240 244 235 267 283 277 297 293 290 319 334 339 328 284 290 299 298 296 305 304 297 279 263 269 280 281 280 283 288 293 291 276 254 228 212 225
133 125 139 162 177 114 111 310 309 257 329 318 326 336 329 321 327 325 328 321 309 270 283 290 298 310 308 303 294 292 294 295 287 290 288 291 289 287 278 265 253 241 235
112 117 183 261 340 52 168 275 332 349 19 322 338 315 311 317 322 330 331 328 325 294 286 303 314 318 318 312 312 315 314 313 311 299 283 274 268 272 283 290 285 274 283
136 189 225 219 341 330 327 206 168 191 218 259 265 279 302 313 317 326 331 333 339 328 314 314 318 325 334 329 329 333 329 310 279 276 280 281 289 297 285 271 273 288 313
148 173 267 284 273 306 297 272 222 219 196 189 210 212 232 285 289 293 308 316 314 302 316 329 350 349 346 341 336 334 332 333 313 292 288 291 289 285 278 264 248 253 269
146 191 208 220 271 273 276 325 351 346 218 181 176 180 227 252 297 319 323 313 310 319 45 354 338 333 326 323 326 327 326 318 306 299 291 284 282 279 283 277 240 229 245
171 220 227 223 230 233 243 227 296 339 358 357 248 231 240 278 304 319 325 322 322 60 80 317 305 300 304 306 309 309 309 304 303 303 296 288 282 284 281 279 284 268 263
178 237 242 235 232 236 238 228 207 218 296 309 294 272 274 286 299 316 331 8 6 18 340 280 276 282 289 299 301 301 305 316 315 307 302 301 300 295 287 271 262 268 268
222 239 242 244 240 241 244 237 227 223 235 269 298 306 295 295 311 327 357 97 271 289 284 287 282 276 281 289 292 292 296 302 309 310 313 312 310 306 295 281 268 273 263
235 231 194 209 249 266 255 243 241 233 245 248 261 274 317 15 352 342 351 251 261 269 267 268 272 271 274 281 287 294 304 307 310 307 306 307 304 299 292 287 270 257 254
228 213 147 96 236 238 235 236 236 225 231 246 259 265 228 207 267 282 271 253 261 268 271 270 271 273 276 282 284 289 290 288 293 298 294 292 297 301 294 288 275 261 250
195 207 214 209 233 253 241 226 250 239 235 247 270 286 271 273 271 263 259 259 259 263 261 255 264 265 262 265 268 274 277 278 283 290 293 292 289 292 299 301 300 291 267
191 204 239 236 212 211 239 254 242 240 238 244 249 264 273 262 263 263 265 268 267 266 274 271 270 283 288 278 265 250 254 263 265 269 272 279 285 287 290 292 284 280 257
197 207 221 224 203 206 223 241 244 239 239 249 251 250 249 251 264 271 271 275 281 282 285 294 292 294 301 300 287 275 266 271 272 260 249 253 268 277 278 283 278 265 255
220 222 224 224 221 225 233 239 237 237 231 239 244 246 252 251 264 292 300 306 318 311 309 304 304 309 308 311 317 316 309 302 292 283 259 246 259 266 259 264 268 263 257
237 223 218 216 223 229 232 234 236 237 226 232 244 244 235 243 282 296 308 326 329 323 320 314 314 316 314 312 318 320 320 317 311 300 275 245 255 265 252 245 253 250 254